Regional Weather Roundup
Issued by NWS Cleveland, OH

Home | Current Version | Previous Version | Graphics & Text | Print | Product List | Glossary On
Versions: 1 2 3 4 5 6 7 8 9 10 11 12 13 14 15 16 17 18 19 20 21 22 23 24 25 26 27 28 29 30 31 32 33 34 35 36 37 38 39 40 41 42 43 44 45 46 47 48 49 50
000
ASUS41 KCLE 010010
RWRCLE
OHIO REGIONAL WEATHER ROUNDUP
NATIONAL WEATHER SERVICE CLEVELAND, OH
800 PM EDT FRI SEP 30 2016

NOTE: "FAIR" INDICATES FEW OR NO CLOUDS BELOW 12,000 FEET WITH NO
SIGNIFICANT WEATHER AND/OR OBSTRUCTIONS TO VISIBILITY.

OHZ001>008-015>018-024>027-034-035-043-044-010100-
   NORTHWEST OHIO

CITY           SKY/WX    TMP DP  RH WIND       PRES   REMARKS
DEFIANCE       MOCLDY    61  58  90 E7        30.05R
FINDLAY        MOCLDY    61  57  87 NE8       30.04S
TOLEDO EXPRESS CLOUDY    59  59 100 NE8       30.06S
TOLEDO EXEC    LGT RAIN  61  61 100 E12G17    30.07F
LIMA           CLOUDY    59  59 100 NE10      30.03S
$$

OHZ009>014-019>023-028>033-038-089-010100-
   NORTHEAST OHIO

CITY           SKY/WX    TMP DP  RH WIND       PRES   REMARKS
CLE-HOPKINS    CLOUDY    62  56  80 SE10      30.10S
CLE-LAKEFRONT  MOCLDY    62  56  80 E10G20    30.08S
CUY CO. ARPT   MOCLDY    61  59  94 SE12      30.09S
LORAIN-ELYRIA  CLOUDY    60  56  86 SE5       30.10R
ASHTABULA      CLOUDY    60  57  89 E12       30.12S
AKRON-CANTON   CLOUDY    59  55  87 E13       30.09R
WOOSTER        CLOUDY    60  57  89 E9        30.08R
MANSFIELD      CLOUDY    61  59  93 E13       30.06S
YOUNGSTOWN     CLOUDY    58  55  90 E13       30.11R
$$

OHZ042-051>053-060>062-070>072-077>081-010100-
  SOUTHWEST OHIO

CITY           SKY/WX    TMP DP  RH WIND       PRES   REMARKS
CINC-COVINGTON MOCLDY    59  53  80 SW5       30.01S
CINC-LUNKEN    PTCLDY    56  56 100 CALM      30.01S
HAMILTON       PTCLDY    58  55  90 CALM      30.01S
DAYTON         MOCLDY    61  59  93 SE6       30.02S
WRIGHT-PAT AFB MOCLDY    61  61 100 E3        30.01R
DAYTON GENERAL CLOUDY    60  56  86 E3        30.01R
WILMINGTON     PTCLDY    57  56  96 S3        30.02R
$$

OHZ036-037-039>041-045>050-054>059-063>069-073>076-082>088-010100-
  CENTRAL AND SOUTHEAST OHIO

CITY           SKY/WX    TMP DP  RH WIND       PRES   REMARKS
COLUMBUS       CLOUDY    63  63 100 NE5       30.01S
OSU AIRPORT    CLOUDY    62  61  96 NE6       30.02S
BOLTON FIELD   CLOUDY    60  59  96 NE3       30.02S
RICKENBACK AFB CLOUDY    61  60  96 CALM      30.01S
NEWARK         CLOUDY    62  60  93 CALM      30.02R
MARION         MOCLDY    61  58  90 NE8       30.04S
LANCASTER      CLOUDY    63  62  97 CALM      30.02S
ZANESVILLE     CLOUDY    64  60  87 NE7       30.02S
NEW PHILLY     CLOUDY    62  59  90 E5        30.06S
$$



USA.gov is the U.S. government's official web portal to all federal, state and local government web resources and services.